sat.trackr.live / text

‹ back to catalog

STARLINK-5907

NORAD 56021 · 2023-042AM

PAYLOAD ACTIVE UNKNOWN

§ Identity

Operator
Country
US
Launch date
2023-03-24
Launch site
AFETR
Launch vehicle
Mass (kg)
RCS (m²)

Purposes: comms

External: N2YO · Heavens-Above · Gunter

§ Orbital elements

Epoch: 2026-05-24T20:45:42.454080Z

Period
94.27 min
Inclination
43.0048°
Eccentricity
0.0002768
Mean motion
15.27578931 rev/d
Perigee alt
481.2 km
Apogee alt
485.0 km
Semi-major
6,861.2 km
B*
5.6134e-5
RAAN
335.1881°
Arg perigee
251.4804°
Mean anomaly
108.5747°
Rev number
17,468

§ Raw data

STARLINK-59071 56021U 23042AM  26144.86507470  .00001282  00000+0  56134-4 0  99942 56021  43.0048 335.1881 0002768 251.4804 108.5747 15.27578931174687

JSON: /api/v1/satellites/56021 · /tle

For live sub-satellite position, see the globe view (requires WebGL).

§ Visibility from observer

Set your observer location to see the next 7 days of passes ≥ 10°. The values pass through the URL so the page stays shareable.

No JS? Fill the form by hand. The geolocation button needs JavaScript.